Location: Unspecified
(0.0000°N, 0.0000°E)
Time: 04:47:23
(UTC+00:00)

deb r/b Ablestar - Pass Details

Date: 22 September 2024
Orbit: 702 x 890 km, 66.9° (Epoch: 08 October)

Event Time Altitude Azimuth Distance (km) Brightness Sun altitude
Exits shadow 04:08:51 44° 359° (N) 971 ? -26.0°
Maximum altitude 04:10:20 72° 70° (ENE) 746 ? -25.6°
Drops below altitude 10° 04:15:22 10° 155° (SSE) 2,224 ? -24.3°
Sets 04:17:46 0° 157° (SSE) 3,172 ? -23.7°
